Location: ASU Dark Sky Observatory
(36.2504°N, 81.4125°W)
Time: 02:01:28
(UTC-04:00)

ETS-7 - Visible Passes

Search period start: 28 May 2015 00:00
Search period end: 07 June 2015 00:00
Orbit: 348 x 352 km, 35.0° (Epoch: 26 May)

Date Brightness Start Highest point End Pass type
(mag) Time Alt. Az. Time Alt. Az. Time Alt. Az.
28 May 2.8 21:44:31 10° SW 21:47:07 29° SSE 21:47:37 27° SE visible
29 May 2.0 22:08:59 10° WSW 22:11:48 51° S 22:11:48 51° S visible
30 May 3.0 22:33:40 10° W 22:35:38 37° WSW 22:35:38 37° WSW visible
31 May 2.0 21:22:01 10° WSW 21:24:55 57° S 21:27:44 11° E visible
31 May 4.4 22:58:23 10° W 22:59:12 17° W 22:59:12 17° W visible
01 Jun 1.8 21:46:36 10° W 21:49:32 69° S 21:51:06 24° ESE visible
02 Jun 1.9 22:11:11 10° W 22:14:06 56° S 22:14:20 54° SSE visible
03 Jun 3.6 22:35:48 10° W 22:37:25 24° WSW 22:37:25 24° WSW visible
04 Jun 2.2 21:23:44 10° W 21:26:36 51° S 21:28:59 14° ESE visible
05 Jun 3.1 21:48:16 10° W 21:50:52 28° SSW 21:51:55 22° SSE visible
06 Jun 4.2 22:13:19 10° WSW 22:14:48 14° SSW 22:14:48 14° SSW visible
